Weather History for KALN - January, 2013

Change the Weather History Date:

Tuesday, January 22, 2013

  Actual Average Record
Temperature  
Mean Temperature 17 °F -  
Max Temperature 21 °F 35 °F 57 °F (1999)
Min Temperature 13 °F 21 °F 8 °F (2003)
Degree Days  
Heating Degree Days 48    
Moisture  
Dew Point 5 °F    
Average Humidity 59    
Maximum Humidity 77    
Minimum Humidity 45    
Precipitation  
Precipitation 0.00 in - - ()
Sea Level Pressure  
Sea Level Pressure 30.40 in    
Wind  
Wind Speed 4 mph (WNW)    
Max Wind Speed 16 mph    
Max Gust Speed -    
Visibility 10 miles    
Events Snow    
Averages and records for this station are not official NWS values.
T = Trace of Precipitation, MM = Missing Value Source: NWS Daily Summary

Daily Weather History Graph

Daily Weather History Graph

Search for Another Location

Airport or City:

Trip Planner

Search our weather history database for the weather conditions in past years. The results will help you decide how hot, cold, wet, or windy it might be!

Date:

Astronomy

Jan. 22, 2013 Rise Set
Actual Time 7:13 AM CST 5:10 PM CST
Civil Twilight 6:44 AM CST 5:39 PM CST
Nautical Twilight 6:12 AM CST 6:11 PM CST
Astronomical Twilight 5:40 AM CST 6:43 PM CST
Moon 1:33 PM CST (1/22) 3:34 AM CST (1/22)
Length of Visible Light 10h 54m
Length of Day
9h 56m
Waxing Gibbous, 83% of the Moon is Illuminated
Jan 22
Waxing Gibbous
Jan 26
Full
Feb 3
Last Quarter
Feb 10
New
Feb 17
First Quarter

Hourly Weather History & Observations

Time (CST) Temp. Windchill Dew Point Humidity Pressure Visibility Wind Dir Wind Speed Gust Speed Precip Events Conditions
12:15 AM 15.4 °F 8.1 °F 0.5 °F 52% 30.39 in 10.0 mi WNW 4.6 mph - N/A   Clear
12:35 AM 15.4 °F 9.8 °F 1.4 °F 54% 30.39 in 10.0 mi WNW 3.5 mph - N/A   Clear
12:55 AM 15.8 °F 10.2 °F 1.2 °F 53% 30.39 in 10.0 mi WNW 3.5 mph - N/A   Clear
1:15 AM 14.7 °F 9.0 °F 2.5 °F 58% 30.39 in 10.0 mi WNW 3.5 mph - N/A   Clear
1:35 AM 13.6 °F 6.0 °F 1.0 °F 57% 30.39 in 10.0 mi West 4.6 mph - N/A   Clear
1:55 AM 14.7 °F 5.9 °F 1.4 °F 56% 30.39 in 10.0 mi West 5.8 mph - N/A   Clear
2:15 AM 14.4 °F 5.5 °F 1.9 °F 58% 30.40 in 10.0 mi West 5.8 mph - N/A   Clear
2:35 AM 14.7 °F 7.3 °F 2.1 °F 57% 30.39 in 10.0 mi WNW 4.6 mph - N/A   Clear
2:55 AM 14.7 °F 7.3 °F 2.3 °F 58% 30.39 in 10.0 mi West 4.6 mph - N/A   Clear
3:15 AM 15.3 °F 7.9 °F 2.1 °F 56% 30.40 in 10.0 mi WNW 4.6 mph - N/A   Mostly Cloudy
3:35 AM 15.6 °F 8.3 °F -0.4 °F 49% 30.39 in 10.0 mi WNW 4.6 mph - N/A   Mostly Cloudy
3:55 AM 14.7 °F 5.9 °F 0.5 °F 53% 30.40 in 10.0 mi West 5.8 mph - N/A   Scattered Clouds
4:15 AM 14.7 °F 7.3 °F 1.4 °F 56% 30.40 in 10.0 mi WNW 4.6 mph - N/A   Clear
4:35 AM 15.3 °F 9.6 °F 1.0 °F 53% 30.41 in 10.0 mi WNW 3.5 mph - N/A   Clear
4:55 AM 15.3 °F 9.6 °F 0.5 °F 52% 30.41 in 10.0 mi NW 3.5 mph - N/A   Clear
5:15 AM 15.3 °F 7.9 °F 0.5 °F 52% 30.41 in 10.0 mi WNW 4.6 mph - N/A   Clear
5:35 AM 15.3 °F 7.9 °F 0.5 °F 52% 30.42 in 10.0 mi WNW 4.6 mph - N/A   Clear
5:55 AM 14.9 °F 7.5 °F 0.3 °F 53% 30.42 in 10.0 mi NW 4.6 mph - N/A   Scattered Clouds
6:50 AM 14.0 °F - -0.4 °F 53% 30.43 in 10.0 mi Calm Calm - N/A   Mostly Cloudy
7:50 AM 14.0 °F 5.1 °F -0.4 °F 53% 30.44 in 10.0 mi North 5.8 mph - N/A   Overcast
9:50 AM 15.8 °F - 1.4 °F 53% 30.47 in 10.0 mi Calm Calm - N/A   Overcast
10:50 AM 17.6 °F 8.2 °F -0.4 °F 45% 30.49 in 10.0 mi NW 6.9 mph - N/A   Overcast
11:50 AM 17.6 °F 2.7 °F 5.0 °F 58% 30.47 in 3.0 mi West 16.1 mph - N/A Snow Light Snow
12:50 PM 17.6 °F 6.4 °F 6.8 °F 63% 30.42 in 6.0 mi WSW 9.2 mph - N/A Snow Light Snow
1:50 PM 19.4 °F 10.4 °F 8.6 °F 63% 30.14 in 10.0 mi NW 6.9 mph - N/A Snow Light Snow
2:50 PM 19.4 °F 10.4 °F 6.8 °F 58% 30.41 in 10.0 mi WNW 6.9 mph - N/A   Overcast
3:50 PM 21.2 °F - 6.8 °F 54% 30.39 in 10.0 mi Calm Calm - N/A   Overcast
4:50 PM 21.2 °F - 8.6 °F 58% 30.39 in 10.0 mi Calm Calm - N/A   Overcast
9:15 PM 21.2 °F - 10.6 °F 64% 30.39 in 10.0 mi Calm Calm - N/A   Overcast
9:35 PM 21.0 °F - 10.8 °F 65% 30.38 in 10.0 mi Calm Calm - N/A   Overcast
9:55 PM 19.9 °F - 11.1 °F 69% 30.39 in 10.0 mi Calm Calm - N/A   Scattered Clouds
10:15 PM 20.3 °F - 11.8 °F 70% 30.39 in 10.0 mi Calm Calm - N/A   Mostly Cloudy
10:35 PM 19.4 °F - 12.4 °F 74% 30.39 in 10.0 mi Calm Calm - N/A   Overcast
10:55 PM 20.7 °F - 13.1 °F 73% 30.39 in 10.0 mi Calm Calm - N/A   Overcast
11:15 PM 20.1 °F - 13.1 °F 74% 30.39 in 10.0 mi Calm Calm - N/A   Overcast
11:35 PM 19.9 °F - 13.5 °F 76% 30.39 in 10.0 mi Calm Calm - N/A   Overcast
11:55 PM 19.8 °F - 13.5 °F 77% 30.38 in 10.0 mi Calm Calm - N/A   Scattered Clouds